Regional Weather Roundup
Issued by NWS

Home | Current Version | Previous Version | Graphics & Text | Print | Product List | Glossary On
Versions: 1 2 3 4 5 6 7 8 9 10 11 12 13 14 15 16 17 18 19 20 21 22 23 24 25 26 27 28 29 30 31 32 33 34 35 36 37 38 39 40 41 42 43 44 45 46 47 48 49 50
000
ASUS43 KOAX 282110
RWRNE

WEATHER ROUNDUP FOR NEBRASKA
NATIONAL WEATHER SERVICE OMAHA NE
400 PM CDT SAT MAR 28 2015

NOTES: SATELLITE DATA IS BEING USED TO AUGMENT CLOUD COVER ABOVE
       12000 FEET.
       "FAIR" INDICATES FEW OR NO CLOUDS BELOW 12,000 FEET WITH NO
       SIGNIFICANT WEATHER AND/OR OBSTRUCTIONS TO VISIBILITY.

  * THESE STATIONS DO NOT REPORT WEATHER SUCH AS RAIN...SNOW OR FOG.

NEZ001>004-019>022-054>056-282200-
NEBRASKA PANHANDLE

CITY           SKY/WX    TMP DP  RH WIND       PRES   REMARKS
SCOTTSBLUFF    SUNNY     81  25  12 W16G25    29.82F
ALLIANCE       SUNNY     81  33  17 W16G23    29.80F
CHADRON        SUNNY     81  29  15 NW12G21   29.73F
KIMBALL        SUNNY     79  24  13 W17G25    29.88F
SIDNEY         SUNNY     77  24  14 W20G36    29.87F
$$

NEZ057>060-069>072-079>082-282200-
SOUTHWEST NEBRASKA

CITY           SKY/WX    TMP DP  RH WIND       PRES   REMARKS
NORTH PLATTE   SUNNY     76  35  22 S12G28    29.88F
IMPERIAL         N/A     79  29  16 S13G22    29.87F
LEXINGTON      SUNNY     70  35  27 S15G21    29.92F
MCCOOK         SUNNY     78  34  20 S9G21     29.91F
OGALLALA       SUNNY     80  32  17 SW9G17    29.84F
$$

NEZ005>010-023>029-035>040-094-282200-
NORTH CENTRAL NEBRASKA

CITY           SKY/WX    TMP DP  RH WIND       PRES   REMARKS
VALENTINE      SUNNY     76  32  20 S17G25    29.79F
AINSWORTH      SUNNY     70  35  27 S21       29.85F
BROKEN BOW     SUNNY     68  36  30 SE15G25   29.92F
O`NEILL        SUNNY     60  32  34 S18G24    29.93F
ORD            SUNNY     62  31  31 S14G26    29.93F
THEDFORD       SUNNY     76  36  22 SW15G25   29.85F
$$

NEZ041-046>049-061>064-073>077-083>087-282200-
SOUTH CENTRAL NEBRASKA

CITY           SKY/WX    TMP DP  RH WIND       PRES   REMARKS
GRAND ISLAND   SUNNY     60  33  36 SE16G24   29.99F
AURORA         SUNNY     59  33  37 S14       29.99F
HASTINGS       SUNNY     62  34  35 SE14G23   29.98F
HEBRON         SUNNY     60  31  33 SE12G21   30.02F
HOLDREGE       SUNNY     66  32  28 S13G20    29.95F
KEARNEY *      SUNNY     66  34  30 S15       29.96F
YORK           SUNNY     55  34  44 S16       30.01F
$$

NEZ011>018-030>034-042>045-282200-
NORTHEAST NEBRASKA

CITY           SKY/WX    TMP DP  RH WIND       PRES   REMARKS
NORFOLK        SUNNY     54  33  45 SE20G25   30.00F
ALBION         SUNNY     57  31  37 S17G24    29.99F
BLAIR          SUNNY     54  29  38 SE13G21   30.06F
COLUMBUS *     SUNNY     54  32  43 SE14G21   30.04F
FREMONT        SUNNY     54  29  37 SE17      30.06F
TEKAMAH        SUNNY     55  27  34 SE21G37   30.06F
WAYNE          SUNNY     54  30  40 S17G25    30.02F
$$

NEZ050>053-065>068-078-088>093-282200-
SOUTHEAST NEBRASKA

CITY           SKY/WX    TMP DP  RH WIND       PRES   REMARKS
LINCOLN        SUNNY     56  32  40 SE18      30.06F
OMAHA EPPLEY   MOSUNNY   53  28  38 S15G24    30.08F
BEATRICE       SUNNY     56  34  43 SE10G17   30.05F
FALLS CITY     SUNNY     54  31  41 SE13G23   30.09F
NEBRASKA CITY  SUNNY     52  28  40 SE14      30.09F
PLATTSMOUTH    SUNNY     53  27  36 SE14G20   30.08F
$$

NEZ044-045-051>053-067-282200-
OMAHA AREA

CITY           SKY/WX    TMP DP  RH WIND       PRES   REMARKS
OMAHA EPPLEY   MOSUNNY   53  28  38 S15G24    30.08F
BLAIR          SUNNY     54  29  38 SE13G21   30.06F
FREMONT        SUNNY     54  29  37 SE17      30.06F
MILLARD        SUNNY     52  31  43 SE15      30.07F
OFFUTT AFB     SUNNY     54  30  40 S16G22    30.07F
PLATTSMOUTH    SUNNY     53  27  36 SE14G20   30.08F
WAHOO          FAIR      54  29  38 S16G23    30.06F
$$


USA.gov is the U.S. government's official web portal to all federal, state and local government web resources and services.